2024-149DG (60570 NORAD) Tracking and Keplerian Element Data

This shows tracking and keplerian element data for the satellite.

Feedback or suggestion? Click here.




ElementValue
Catalog60570
Name2024-149DG
Epoch Orbit849
Epoch Day286.77231075
Epoch Year2024
RAAN1.4429
Inclination97.7453
Eccentricity0.0001415
Argument of Perigee276.9891
Mean Anonmoly83.1169
Mean Motion14.96174622
Decay Rate0.00041194
L11 60570U 24149DG 24286.77231075 .00041194 00000+0 36419-2 0 9995
L22 60570 97.7453 1.4429 0001415 276.9891 83.1169 14.96174622 8499



Live tracking and technical data element details for 2024-149DG (NORAD 60570). 2024-149DG can be tracked NOW for your location showing map with azimuth and elevation plus other details from your city location.







IsCatalogInMostPopularTable: catalog: 60570, numindb: 3
Update: records affected: 1



GetName: 60570 2024-149DG

Hit Count: updated at: Fri, 06 Dec 2024 11:57:15 GMT